GW1660 Weather Reports


Display with metric or nautical units.
time (UTC)temp
F
wind
direction
speed
MPH
gust
MPH
rain 1hr
in
rain 24hr
in
rain mn
in
humidity
%
barometer
mb
20260510031608 52 165 0.0 0.0 0.00 0.10 0.10 92 1010.8
20260510031104 52 165 0.0 0.0 0.00 0.10 0.10 91 1010.9
20260510030559 52 165 0.0 0.0 0.00 0.10 0.10 91 1010.8
20260510030057 53 165 0.0 0.0 0.00 0.10 0.10 91 1010.8
20260510025554 53 165 0.0 0.0 0.00 0.10 0.10 91 1010.8
20260510025052 53 165 0.0 0.0 0.00 0.10 0.10 91 1010.8
20260510024548 53 165 0.0 0.0 0.00 0.10 0.10 91 1010.6
20260510024044 53 165 0.0 0.0 0.00 0.10 0.10 90 1010.7
20260510023541 53 165 0.0 0.0 0.00 0.10 0.10 89 1010.5
20260510023038 54 165 0.0 0.0 0.00 0.10 0.10 89 1010.4
20260510022537 53 165 1.0 1.0 0.00 0.10 0.10 89 1010.7
20260510022032 54 165 0.0 1.0 0.00 0.10 0.10 89 1010.5
20260510021529 54 165 1.0 1.0 0.00 0.10 0.10 89 1010.4
20260510021027 54 165 0.0 0.0 0.00 0.10 0.10 88 1010.4
20260510020526 54 165 0.0 0.0 0.00 0.10 0.10 87 1010.4
20260510020022 55 165 0.0 0.0 0.00 0.10 0.10 86 1010.4
20260510015518 55 165 0.0 0.0 0.00 0.10 0.10 85 1010.1
20260510015014 55 165 0.0 1.0 0.00 0.10 0.10 85 1010.4
20260510014511 55 165 0.0 1.0 0.00 0.10 0.10 86 1010.4
20260510014008 55 165 0.0 1.0 0.00 0.10 0.10 86 1010.2
20260510013502 55 165 0.0 0.0 0.00 0.10 0.10 86 1010.2
20260510012958 55 165 0.0 0.0 0.00 0.10 0.10 86 1010.2
20260510012453 55 165 0.0 0.0 0.00 0.10 0.10 86 1009.8
20260510011948 55 165 0.0 0.0 0.00 0.10 0.10 86 1009.8
20260510011443 56 165 0.0 0.0 0.00 0.10 0.10 85 1009.6
20260510010939 56 165 0.0 0.0 0.00 0.10 0.10 83 1009.8
20260510010437 57 165 0.0 0.0 0.00 0.10 0.10 82 1009.5
20260510005934 57 165 0.0 0.0 0.00 0.10 0.10 81 1009.6
20260510005429 58 165 0.0 0.0 0.00 0.10 0.10 79 1009.6
20260510004927 58 166 1.0 1.0 0.00 0.10 0.10 77 1009.6
20260510004424 58 166 1.0 1.0 0.00 0.10 0.10 78 1009.6
20260510003922 58 166 0.0 0.0 0.00 0.10 0.10 78 1009.6
20260510003419 59 166 0.0 0.0 0.00 0.10 0.10 77 1009.6
20260510002918 59 166 0.0 0.0 0.00 0.10 0.10 77 1009.5
20260510002415 59 166 0.0 0.0 0.00 0.10 0.10 76 1009.4
20260510001912 60 166 1.0 1.0 0.00 0.10 0.10 75 1009.4
20260510001410 60 166 2.0 2.0 0.00 0.10 0.10 74 1009.3
20260510000906 60 170 2.0 2.0 0.00 0.10 0.10 73 1009.1
20260510000403 60 171 1.0 1.0 0.00 0.10 0.10 72 1009.1
20260509235859 61 171 1.0 4.0 0.00 0.10 0.10 71 1009.2
20260509235356 61 141 1.0 2.0 0.00 0.10 0.10 71 1009.0
20260509234852 62 139 2.0 3.0 0.00 0.10 0.10 69 1009.0
20260509234349 62 125 2.0 2.0 0.00 0.10 0.10 69 1009.2
20260509233848 62 130 1.0 3.0 0.00 0.10 0.10 69 1009.1
20260509233345 62 155 2.0 2.0 0.00 0.10 0.10 68 1009.0
20260509232840 63 156 2.0 2.0 0.00 0.10 0.10 67 1008.8
20260509232339 63 156 0.0 2.0 0.00 0.10 0.10 68 1009.0
20260509231834 63 153 3.0 4.0 0.00 0.10 0.10 67 1008.9
20260509231331 63 167 1.0 2.0 0.00 0.10 0.10 67 1008.9
20260509230829 63 167 2.0 3.0 0.00 0.10 0.10 67 1009.2
20260509230326 63 173 1.0 2.0 0.00 0.10 0.10 67 1009.0
20260509225821 63 180 2.0 3.0 0.00 0.10 0.10 67 1009.1
20260509225318 63 217 1.0 2.0 0.00 0.10 0.10 67 1009.1
20260509224814 63 142 1.0 2.0 0.00 0.10 0.10 68 1009.2
20260509224310 63 138 1.0 1.0 0.00 0.10 0.10 70 1009.1
20260509223807 63 119 1.0 2.0 0.00 0.10 0.10 69 1009.1
20260509223304 63 165 1.0 3.0 0.00 0.10 0.10 70 1009.2
20260509222801 62 133 0.0 2.0 0.00 0.10 0.10 68 1009.1
20260509222256 62 101 2.0 4.0 0.00 0.10 0.10 69 1009.0
20260509221752 63 155 2.0 3.0 0.00 0.10 0.10 66 1009.1
20260509221249 63 217 2.0 2.0 0.00 0.10 0.10 67 1009.0
20260509220745 63 172 4.0 4.0 0.00 0.10 0.10 67 1009.2
20260509220241 64 49 1.0 1.0 0.00 0.10 0.10 67 1009.1
20260509215736 63 175 0.0 3.0 0.00 0.10 0.10 69 1009.2
20260509215234 63 147 4.0 3.0 0.00 0.10 0.10 68 1009.2
20260509214731 63 60 1.0 3.0 0.00 0.10 0.10 69 1009.4
20260509214227 63 131 2.0 3.0 0.00 0.10 0.10 67 1009.4
20260509213725 63 140 1.0 3.0 0.00 0.10 0.10 69 1009.3
20260509213220 63 286 2.0 3.0 0.00 0.10 0.10 69 1009.3
20260509212718 62 134 1.0 1.0 0.00 0.10 0.10 73 1009.4
20260509212215 62 239 1.0 2.0 0.00 0.10 0.10 72 1009.7
20260509211711 62 242 0.0 2.0 0.00 0.10 0.10 71 1009.6
20260509211207 62 270 1.0 2.0 0.00 0.10 0.10 72 1009.7
20260509210704 62 291 2.0 2.0 0.00 0.10 0.10 70 1009.8
20260509210201 62 277 1.0 1.0 0.00 0.10 0.10 67 1009.8
20260509205701 62 166 2.0 2.0 0.00 0.10 0.10 68 1009.7
20260509205201 62 156 1.0 3.0 0.00 0.10 0.10 66 1009.5
20260509204657 62 151 2.0 2.0 0.00 0.10 0.10 66 1009.5
20260509204153 62 159 1.0 2.0 0.00 0.10 0.10 65 1009.5
20260509203649 63 159 1.0 1.0 0.00 0.10 0.10 65 1009.4
20260509203148 62 159 0.0 0.0 0.00 0.10 0.10 67 1009.5
20260509202643 62 159 1.0 1.0 0.00 0.10 0.10 64 1009.6
20260509202138 62 159 0.0 0.0 0.00 0.10 0.10 69 1009.3
20260509201634 62 159 1.0 2.0 0.00 0.10 0.10 65 1009.4
20260509201131 62 160 0.0 1.0 0.00 0.10 0.10 68 1009.5
20260509200627 62 160 1.0 1.0 0.00 0.10 0.10 67 1009.7
20260509200123 62 160 1.0 2.0 0.00 0.10 0.10 67 1009.8
20260509195619 62 160 1.0 3.0 0.00 0.10 0.10 66 1010.1
20260509195113 63 160 3.0 3.0 0.00 0.10 0.10 66 1009.8
20260509194613 62 274 1.0 1.0 0.00 0.10 0.10 65 1010.0
20260509194111 62 123 2.0 2.0 0.00 0.10 0.10 66 1010.0
20260509193606 62 109 2.0 2.0 0.00 0.10 0.10 69 1010.1
20260509193102 64 152 3.0 6.0 0.00 0.10 0.10 66 1010.3
20260509192559 64 168 2.0 3.0 0.00 0.10 0.10 66 1010.1
20260509192054 64 170 0.0 3.0 0.00 0.10 0.10 65 1010.2
20260509191555 66 146 1.0 2.0 0.00 0.10 0.10 65 1010.3
20260509191051 64 289 1.0 2.0 0.00 0.10 0.10 68 1010.3
20260509190548 62 80 1.0 1.0 0.00 0.10 0.10 73 1010.3
20260509190046 61 89 1.0 2.0 0.00 0.10 0.10 72 1010.4
20260509185543 61 144 2.0 6.0 0.00 0.10 0.10 72 1010.5
20260509185039 62 201 5.0 6.0 0.00 0.10 0.10 72 1010.6
20260509184537 60 145 1.0 3.0 0.00 0.10 0.10 74 1010.9
20260509184033 60 152 4.0 6.0 0.00 0.10 0.10 73 1010.7
20260509183529 59 76 3.0 7.0 0.00 0.10 0.10 73 1010.7
20260509183025 59 165 4.0 6.0 0.00 0.10 0.10 75 1010.9
20260509182521 59 133 4.0 7.0 0.00 0.10 0.10 76 1010.9
20260509182018 58 149 5.0 7.0 0.00 0.10 0.10 79 1011.2
20260509181517 58 159 3.0 3.0 0.00 0.10 0.10 83 1011.3
20260509181014 57 132 2.0 4.0 0.00 0.10 0.10 81 1011.5
20260509180509 57 146 2.0 3.0 0.00 0.10 0.10 83 1011.3
20260509180008 57 145 6.0 7.0 0.00 0.10 0.10 82 1011.3
20260509175502 57 163 4.0 4.0 0.00 0.10 0.10 84 1011.1
20260509174959 57 158 4.0 6.0 0.00 0.10 0.10 84 1011.1
20260509174455 57 140 4.0 6.0 0.05 0.10 0.10 85 1011.4
20260509173950 57 118 1.0 2.0 0.05 0.10 0.10 84 1011.4
20260509173444 57 127 1.0 3.0 0.00 0.09 0.09 83 1011.3
20260509172941 57 125 3.0 3.0 0.00 0.09 0.09 82 1011.5
20260509172438 57 126 1.0 2.0 0.00 0.09 0.09 82 1011.4
20260509171934 57 144 3.0 3.0 0.00 0.09 0.09 80 1011.4
20260509171430 57 150 2.0 3.0 0.00 0.09 0.09 81 1011.4
20260509170927 57 124 2.0 2.0 0.00 0.09 0.09 79 1011.5
20260509170422 58 121 2.0 2.0 0.00 0.09 0.09 77 1011.6
20260509165918 59 120 1.0 1.0 0.00 0.09 0.09 77 1011.6
20260509165412 58 120 1.0 1.0 0.00 0.09 0.09 79 1011.4
20260509164908 58 120 0.0 0.0 0.00 0.09 0.09 81 1011.6
20260509164405 57 120 0.0 1.0 0.00 0.09 0.09 79 1011.6
20260509163900 57 124 2.0 3.0 0.00 0.09 0.09 78 1011.6
20260509163357 58 169 1.0 1.0 0.00 0.09 0.09 81 1011.8
20260509162852 57 175 0.0 1.0 0.00 0.09 0.09 81 1012.0
20260509162350 57 226 0.0 0.0 0.00 0.09 0.09 79 1011.9
20260509161846 57 226 0.0 1.0 0.00 0.09 0.09 77 1011.8
20260509161343 57 226 2.0 2.0 0.00 0.09 0.09 82 1011.6
20260509160839 56 282 0.0 1.0 0.00 0.09 0.09 81 1011.3
20260509160334 56 282 0.0 0.0 0.00 0.09 0.09 86 1011.5
20260509155830 56 282 0.0 0.0 0.00 0.09 0.09 88 1011.3
20260509155326 55 281 0.0 0.0 0.00 0.09 0.09 90 1011.4
20260509154823 55 280 0.0 0.0 0.07 0.09 0.09 91 1011.4
20260509154319 55 280 0.0 0.0 0.05 0.08 0.08 90 1011.8
20260509153816 55 280 0.0 0.0 0.12 0.08 0.08 90 1011.6
20260509153313 56 280 1.0 1.0 0.12 0.07 0.07 87 1012.0
20260509152810 56 279 0.0 0.0 0.07 0.05 0.05 85 1012.1
20260509152307 57 279 0.0 0.0 0.12 0.05 0.05 82 1012.1
20260509151803 57 280 0.0 0.0 0.12 0.04 0.04 83 1012.1
20260509151259 57 280 0.0 0.0 0.14 0.03 0.03 84 1011.8
20260509150758 57 280 0.0 0.0 0.07 0.02 0.02 79 1011.9
20260509150255 58 273 0.0 0.0 0.05 0.01 0.01 74 1012.2
20260509145752 58 273 0.0 0.0 0.05 0.01 0.01 72 1012.1
20260509145251 58 273 1.0 1.0 0.00 0.00 0.00 70 1012.3
20260509144748 58 275 0.0 1.0 0.00 0.00 0.00 69 1012.2
20260509144245 59 273 0.0 2.0 0.00 0.00 0.00 68 1012.3
20260509143742 59 278 1.0 1.0 0.00 0.00 0.00 65 1012.0
20260509143240 59 278 0.0 1.0 0.00 0.00 0.00 64 1012.4
20260509142736 60 289 2.0 2.0 0.00 0.00 0.00 61 1012.4
20260509142232 60 275 0.0 1.0 0.00 0.00 0.00 62 1012.0
20260509141727 60 289 0.0 2.0 0.00 0.00 0.00 59 1012.2
20260509141225 60 252 1.0 3.0 0.00 0.00 0.00 58 1012.0
20260509140721 60 285 1.0 3.0 0.00 0.00 0.00 57 1012.0
20260509140222 60 289 0.0 1.0 0.00 0.00 0.00 59 1011.6
20260509135716 60 285 0.0 1.0 0.00 0.00 0.00 59 1011.3
20260509135214 59 279 1.0 1.0 0.00 0.00 0.00 61 1011.4
20260509134710 59 137 1.0 1.0 0.00 0.00 0.00 62 1011.4
20260509134208 59 137 1.0 1.0 0.00 0.00 0.00 62 1011.7
20260509133705 59 137 0.0 0.0 0.00 0.00 0.00 63 1011.4
20260509133202 58 137 0.0 1.0 0.00 0.00 0.00 65 1011.4
20260509132700 58 137 0.0 1.0 0.00 0.00 0.00 64 1011.1
20260509132159 58 137 0.0 1.0 0.00 0.00 0.00 65 1011.2
20260509131654 58 137 1.0 1.0 0.00 0.00 0.00 65 1011.5
20260509131151 58 137 1.0 1.0 0.00 0.00 0.00 67 1011.0
20260509130647 57 137 0.0 0.0 0.00 0.00 0.00 66 1011.4
20260509130143 57 137 0.0 0.0 0.00 0.00 0.00 68 1011.4
20260509125640 57 137 1.0 2.0 0.00 0.00 0.00 68 1011.2
20260509125137 57 137 1.0 1.0 0.00 0.00 0.00 67 1011.5
20260509124633 57 136 1.0 1.0 0.00 0.00 0.00 66 1011.4
20260509124130 57 137 1.0 2.0 0.00 0.00 0.00 67 1011.6
20260509123628 57 136 0.0 1.0 0.00 0.00 0.00 68 1011.5
20260509123125 57 136 0.0 1.0 0.00 0.00 0.00 68 1011.4
20260509122621 57 137 1.0 2.0 0.00 0.00 0.00 68 1011.3
20260509122118 57 137 0.0 1.0 0.00 0.00 0.00 67 1011.2
20260509121614 57 190 3.0 3.0 0.00 0.00 0.00 67 1011.3
20260509121112 57 143 2.0 3.0 0.00 0.00 0.00 70 1011.3
20260509120610 57 121 1.0 1.0 0.00 0.00 0.00 70 1011.2
20260509120108 56 121 0.0 1.0 0.00 0.00 0.00 71 1011.7
20260509115605 56 163 2.0 3.0 0.00 0.00 0.00 70 1011.1
20260509115103 55 176 2.0 2.0 0.00 0.00 0.00 70 1010.9
20260509114601 55 176 2.0 2.0 0.00 0.00 0.00 71 1010.9
20260509114059 55 176 0.0 0.0 0.00 0.00 0.00 74 1010.9
20260509113557 55 176 0.0 0.0 0.00 0.00 0.00 74 1011.0
20260509113055 55 176 2.0 1.0 0.00 0.00 0.00 72 1011.2
20260509112551 55 176 1.0 1.0 0.00 0.00 0.00 73 1011.1
20260509112048 54 176 1.0 2.0 0.00 0.00 0.00 75 1011.1
20260509111546 54 176 2.0 2.0 0.00 0.00 0.00 76 1010.9
20260509111043 54 177 0.0 1.0 0.00 0.00 0.00 77 1011.0
20260509110539 54 177 0.0 0.0 0.00 0.00 0.00 78 1010.9
20260509110036 53 177 0.0 0.0 0.00 0.00 0.00 80 1010.7
20260509105534 53 177 0.0 0.0 0.00 0.00 0.00 80 1010.8
20260509105032 53 177 0.0 0.0 0.00 0.00 0.00 81 1010.7
20260509104529 53 177 0.0 0.0 0.00 0.00 0.00 81 1010.9
20260509104025 53 177 0.0 0.0 0.00 0.00 0.00 82 1010.7
20260509103523 53 177 0.0 0.0 0.00 0.00 0.00 83 1010.9
20260509103021 53 177 0.0 0.0 0.00 0.00 0.00 82 1010.8
20260509102518 53 177 0.0 0.0 0.00 0.00 0.00 81 1010.8
20260509102015 53 177 0.0 0.0 0.00 0.00 0.00 82 1010.8
20260509101511 53 177 0.0 0.0 0.00 0.00 0.00 81 1010.6
20260509101008 53 177 0.0 0.0 0.00 0.00 0.00 81 1010.7
20260509100505 53 177 0.0 0.0 0.00 0.00 0.00 83 1010.6
20260509100002 52 177 0.0 0.0 0.00 0.00 0.00 83 1010.5
20260509095459 52 177 0.0 0.0 0.00 0.00 0.00 83 1010.5
20260509094956 52 177 0.0 0.0 0.00 0.00 0.00 83 1010.5
20260509094452 52 177 0.0 0.0 0.00 0.00 0.00 82 1010.4
20260509093950 52 177 0.0 0.0 0.00 0.00 0.00 82 1010.5
20260509093448 53 177 0.0 0.0 0.00 0.00 0.00 81 1010.7
20260509092945 53 177 0.0 0.0 0.00 0.00 0.00 81 1010.5
20260509092443 53 177 0.0 0.0 0.00 0.00 0.00 81 1010.6
20260509091942 53 177 0.0 0.0 0.00 0.00 0.00 80 1010.8
20260509091438 52 177 0.0 0.0 0.00 0.00 0.00 80 1010.6
20260509090935 53 177 0.0 0.0 0.00 0.00 0.00 80 1010.9
20260509090432 53 177 0.0 0.0 0.00 0.00 0.00 80 1010.9
20260509085930 53 177 0.0 0.0 0.00 0.00 0.00 80 1010.8
20260509085427 53 177 0.0 0.0 0.00 0.00 0.00 79 1011.0
20260509084923 53 177 0.0 0.0 0.00 0.00 0.00 79 1010.9
20260509084420 53 177 0.0 1.0 0.00 0.00 0.00 79 1011.2
20260509083918 53 177 0.0 0.0 0.00 0.00 0.00 78 1011.0
20260509083414 53 177 0.0 0.0 0.00 0.00 0.00 78 1010.9
20260509082911 53 177 0.0 0.0 0.00 0.00 0.00 78 1011.1
20260509082408 53 177 0.0 0.0 0.00 0.00 0.00 77 1011.3
20260509081905 53 177 0.0 0.0 0.00 0.00 0.00 77 1011.2
20260509081402 53 177 0.0 0.0 0.00 0.00 0.00 77 1011.2
20260509080900 52 177 0.0 0.0 0.00 0.00 0.00 78 1011.2
20260509080358 52 177 0.0 0.0 0.00 0.00 0.00 78 1011.3
20260509075856 52 177 0.0 0.0 0.00 0.00 0.00 78 1011.2
20260509075352 52 177 0.0 0.0 0.00 0.00 0.00 79 1011.3
20260509074850 52 177 0.0 0.0 0.00 0.00 0.00 79 1011.1
20260509074347 52 177 0.0 0.0 0.00 0.00 0.00 78 1011.0
20260509073843 52 177 0.0 0.0 0.00 0.00 0.00 77 1011.0
20260509073340 52 177 0.0 0.0 0.00 0.00 0.00 77 1011.2
20260509072837 52 177 0.0 0.0 0.00 0.00 0.00 77 1011.2
20260509072333 52 177 0.0 0.0 0.00 0.00 0.00 76 1011.2
20260509071830 52 177 0.0 0.0 0.00 0.00 0.00 76 1011.2
20260509071327 52 177 0.0 0.0 0.00 0.00 0.00 76 1011.3
20260509070824 52 177 0.0 0.0 0.00 0.00 0.00 77 1011.4
20260509070320 52 177 0.0 0.0 0.00 0.00 0.00 75 1011.4
20260509065817 52 177 0.0 0.0 0.00 0.00 0.00 74 1011.3
20260509065313 52 177 0.0 0.0 0.00 0.00 0.00 74 1011.2
20260509064809 53 177 1.0 1.0 0.00 0.00 0.00 73 1011.4
20260509064307 53 176 0.0 0.0 0.00 0.00 0.00 72 1011.2
20260509063804 53 176 0.0 0.0 0.00 0.00 0.00 72 1011.3
20260509063300 53 177 0.0 0.0 0.00 0.00 0.00 72 1011.2
20260509062758 53 176 0.0 0.0 0.00 0.00 0.00 71 1011.1
20260509062255 53 176 0.0 0.0 0.00 0.00 0.00 71 1011.3
20260509061752 53 177 0.0 0.0 0.00 0.00 0.00 70 1011.4
20260509061250 53 176 0.0 0.0 0.00 0.00 0.00 70 1011.3
20260509060747 54 177 0.0 0.0 0.00 0.00 0.00 70 1011.1
20260509060243 54 176 0.0 0.0 0.00 0.00 0.00 69 1011.3
20260509055739 54 176 0.0 0.0 0.00 0.00 0.00 69 1011.2
20260509055235 53 176 0.0 0.0 0.00 0.00 0.00 70 1011.4
20260509054732 54 176 0.0 0.0 0.00 0.00 0.00 70 1011.5
20260509054229 54 176 0.0 0.0 0.00 0.00 0.00 69 1011.7
20260509053727 54 176 0.0 0.0 0.00 0.00 0.00 68 1011.8
20260509053224 54 177 0.0 0.0 0.00 0.00 0.00 67 1012.0
20260509052722 54 176 0.0 1.0 0.00 0.00 0.00 67 1011.9
20260509052219 54 176 1.0 1.0 0.00 0.00 0.00 67 1012.1
20260509051716 54 177 0.0 1.0 0.00 0.00 0.00 69 1012.2
20260509051214 54 177 1.0 1.0 0.00 0.00 0.00 68 1012.1
20260509050711 54 177 1.0 1.0 0.00 0.00 0.00 68 1012.1
20260509050207 55 177 0.0 3.0 0.00 0.00 0.00 69 1012.1
20260509045705 55 242 2.0 2.0 0.00 0.00 0.00 69 1012.0
20260509045201 55 245 1.0 1.0 0.00 0.00 0.00 67 1012.1
20260509044659 55 256 1.0 1.0 0.00 0.00 0.00 70 1012.1
20260509044156 54 257 0.0 0.0 0.00 0.00 0.00 69 1012.0
20260509043652 55 257 0.0 0.0 0.00 0.00 0.00 70 1012.1
20260509043148 55 257 0.0 0.0 0.00 0.00 0.00 68 1012.0
20260509042645 55 257 0.0 0.0 0.00 0.00 0.00 68 1012.2
20260509042141 55 257 1.0 1.0 0.00 0.00 0.00 68 1012.2
20260509041638 55 257 1.0 1.0 0.00 0.00 0.00 70 1012.0
20260509041135 56 257 0.0 1.0 0.00 0.00 0.00 70 1012.3
20260509040634 56 257 0.0 0.0 0.00 0.00 0.00 68 1012.3
20260509040130 56 257 1.0 1.0 0.00 0.00 0.00 71 1012.3
20260509035627 56 266 0.0 1.0 0.00 0.00 0.00 71 1012.5
20260509035123 56 207 0.0 0.0 0.00 0.00 0.00 69 1012.4
20260509034621 56 207 1.0 1.0 0.00 0.00 0.00 67 1012.3
20260509034118 56 207 0.0 0.0 0.00 0.00 0.00 68 1012.5
20260509033615 56 208 1.0 1.0 0.00 0.00 0.00 69 1012.3
20260509033112 57 207 0.0 0.0 0.00 0.00 0.00 68 1012.3
20260509032609 57 207 0.0 0.0 0.00 0.00 0.00 68 1012.3
20260509032106 57 207 0.0 0.0 0.00 0.00 0.00 67 1012.4